| time (UTC) | temp C | wind direction | speed KPH | gust KPH | rain 1hr cm | rain 24hr cm | rain mn cm | humidity % | barometer mb |
| 20260507093045 | 10 | 268 | 0.0 | 1.6 | 0.00 | 0.00 | 0.00 | ||
| 20260507090057 | 10 | 268 | 0.0 | 1.6 | 0.00 | 0.00 | 0.00 | ||
| 20260507083033 | 10 | 237 | 0.0 | 1.6 | 0.00 | 0.00 | 0.00 | ||
| 20260507073044 | 10 | 226 | 0.0 | 3.2 | 0.00 | 0.00 | 0.00 | ||
| 20260507070056 | 10 | 252 | 0.0 | 1.6 | 0.00 | 0.00 | 0.00 | ||
| 20260507063030 | 10 | 325 | 1.6 | 4.8 | 0.00 | 0.00 | 0.00 | ||
| 20260507050056 | 11 | 217 | 0.0 | 4.8 | 0.00 | 0.00 | 0.00 | ||
| 20260507043036 | 11 | 238 | 1.6 | 6.4 | 0.00 | 0.00 | 0.00 | ||
| 20260507033046 | 12 | 224 | 0.0 | 3.2 | 0.00 | 0.00 | 0.00 | ||
| 20260507023041 | 12 | 10 | 1.6 | 6.4 | 0.00 | 0.00 | 0.00 | ||
| 20260507020049 | 12 | 212 | 1.6 | 8.0 | 0.00 | 0.00 | 0.00 | ||
| 20260507013050 | 12 | 330 | 1.6 | 6.4 | 0.00 | 0.00 | 0.00 | ||
| 20260507010100 | 13 | 248 | 1.6 | 6.4 | 0.00 | 0.00 | 0.00 | ||
| 20260507003037 | 13 | 282 | 3.2 | 6.4 | 0.00 | 0.00 | 0.00 | ||
| 20260506233045 | 12 | 219 | 0.0 | 3.2 | 0.00 | 0.00 | 0.00 | ||
| 20260506230053 | 12 | 262 | 1.6 | 16.1 | 0.00 | 0.00 | 0.00 | ||
| 20260506223054 | 13 | 242 | 3.2 | 14.5 | 0.00 | 0.00 | 0.00 | ||
| 20260506213043 | 13 | 222 | 1.6 | 12.9 | 0.00 | 0.00 | 0.00 | ||
| 20260506210112 | 14 | 224 | 3.2 | 9.7 | 0.00 | 0.00 | 0.00 | ||
| 20260506203048 | 14 | 251 | 1.6 | 12.9 | 0.00 | 0.00 | 0.00 | ||
| 20260506200101 | 13 | 243 | 1.6 | 9.7 | 0.00 | 0.00 | 0.00 | ||
| 20260506193043 | 13 | 285 | 1.6 | 9.7 | 0.00 | 0.00 | 0.00 | ||
| 20260506183033 | 12 | 215 | 1.6 | 6.4 | 0.00 | 0.00 | 0.00 | ||
| 20260506180104 | 12 | 270 | 0.0 | 4.8 | 0.00 | 0.00 | 0.00 | ||
| 20260506173044 | 12 | 239 | 3.2 | 9.7 | 0.00 | 0.00 | 0.00 | ||
| 20260506170055 | 12 | 249 | 1.6 | 9.7 | 0.00 | 0.00 | 0.00 | ||
| 20260506163036 | 12 | 265 | 1.6 | 8.0 | 0.00 | 0.00 | 0.00 | ||
| 20260506160046 | 12 | 239 | 0.0 | 3.2 | 0.00 | 0.00 | 0.00 | ||
| 20260506150056 | 12 | 262 | 0.0 | 8.0 | 0.00 | 0.00 | 0.00 | ||
| 20260506143036 | 11 | 235 | 0.0 | 1.6 | 0.00 | 0.00 | 0.00 | ||
| 20260506140104 | 11 | 176 | 0.0 | 3.2 | 0.00 | 0.00 | 0.00 | ||
| 20260506133044 | 11 | 280 | 0.0 | 1.6 | 0.00 | 0.00 | 0.00 | ||
| 20260506130053 | 11 | 234 | 0.0 | 1.6 | 0.00 | 0.00 | 0.00 | ||
| 20260506123037 | 11 | 262 | 0.0 | 3.2 | 0.00 | 0.00 | 0.00 | ||
| 20260506120108 | 11 | 211 | 0.0 | 3.2 | 0.00 | 0.00 | 0.00 | ||
| 20260506113048 | 11 | 242 | 0.0 | 8.0 | 0.00 | 0.00 | 0.00 | ||
| 20260506103041 | 11 | 217 | 0.0 | 3.2 | 0.00 | 0.00 | 0.00 | ||
| 20260506100049 | 11 | 239 | 0.0 | 1.6 | 0.00 | 0.00 | 0.00 |